CAPE
464 140 124 419 187 33 69 386 492 539 193 257 216 282 201 259 113 137 1028 1029 920 1251 1846 1895 1971 2061 2063 1855 1675 1628 1526 1695 1702 1315 1630 1896 1563 1674 1872 2076 1884 1804 2054 1692 1810 1608 1776 638 1554
251 121 477 516 98 2 63 269 501 325 102 247 544 349 409 581 1063 1145 1038 1022 956 1352 1942 1984 1859 2121 1939 2037 1874 1819 1801 1755 1768 1443 1915 1672 1377 1392 1850 1759 1968 2012 1700 1711 1193 1432 1506 799 1294
0 1 371 253 104 94 80 148 414 47 319 486 665 658 495 597 1049 1029 1054 919 1281 1560 1735 1822 1971 2157 2024 2001 1982 1852 1843 1865 1405 2016 1654 1620 1037 1023 1361 1876 1789 1713 1588 1909 1673 1428 642 470 1178
1276 1239 646 144 220 288 304 266 389 392 1275 960 738 581 614 952 890 1067 1071 1050 984 1373 1623 1839 2019 1943 2015 2018 2021 1922 2135 1857 1563 1447 1221 1605 1445 1152 1326 1478 1835 1646 1628 1930 1743 1859 514 408 1241
1218 322 215 191 260 284 174 307 761 942 1050 829 649 627 709 905 956 1018 863 810 696 1172 1689 1971 1979 2039 2039 2048 1979 1994 2163 1749 2018 1422 1779 1655 1526 1548 1567 1478 1763 1777 1612 1683 1749 1698 1344 928 1018
553 60 79 190 241 288 180 134 898 1155 1090 904 700 747 815 869 980 990 809 886 796 1034 1672 1890 2047 2030 2083 2128 1893 2036 1929 1698 1802 1474 1989 1443 1604 1631 1604 1598 1622 1784 1612 1700 1747 1633 1534 997 318
408 0 7 152 105 200 71 218 591 909 906 881 925 818 805 948 881 868 1026 1065 944 1031 1369 1756 1902 1964 1973 2132 2109 1984 1870 1614 1956 1182 1310 1445 1781 1494 1383 1472 1583 1642 1656 1598 1635 1587 1513 967 663
79 2 18 139 345 352 187 281 207 596 939 888 775 704 711 854 806 819 1194 1241 1173 1222 1257 1285 1644 1811 1830 1846 1927 1854 1658 1479 2024 1447 980 1137 1096 997 1176 1442 1389 1545 1465 1481 1442 1270 1017 1041 561
155 66 103 171 189 223 310 170 32 508 954 962 919 768 777 722 855 1136 1090 1111 982 1150 1266 1371 1327 1458 1543 1567 1741 1679 1365 1794 2172 1693 1533 1081 934 843 996 1164 1375 1265 1404 1315 1428 1241 931 612 395
0 22 44 163 261 214 283 78 8 74 797 566 610 925 928 1048 1076 1019 1034 1017 747 768 1050 1154 1193 1081 1236 1390 1376 1328 1488 1711 1250 1563 1474 717 283 87 329 764 1227 1309 1091 1343 1402 1159 915 838 332
3 14 107 116 361 354 360 172 107 0 413 714 703 890 1206 1369 1133 946 974 1029 950 711 883 926 826 870 845 838 924 724 688 926 1101 973 664 465 339 418 369 494 490 1103 1178 895 923 1108 509 163 135
23 4 16 154 327 375 337 72 2 22 19 622 914 777 984 1119 1100 1162 1042 1050 960 748 643 715 584 198 533 1219 746 285 41 37 416 485 556 506 126 272 428 292 86 698 976 301 507 353 231 114 155
157 95 130 202 280 349 238 173 140 33 353 645 728 880 541 1010 974 1053 1118 1018 824 698 667 615 349 179 856 1291 1042 734 570 198 90 148 470 477 65 127 450 203 139 63 98 150 105 126 140 79 124
3 200 107 133 149 294 215 232 122 120 280 518 669 840 782 546 861 859 947 949 769 742 734 615 202 71 735 1294 904 589 569 886 780 577 275 480 270 161 272 214 92 120 104 381 214 216 146 79 82
0 0 42 33 178 293 143 73 168 223 353 763 725 710 799 515 671 764 741 734 630 656 751 546 258 49 502 598 834 498 349 450 572 858 651 564 474 191 137 123 45 154 521 233 399 227 176 128 65
0 0 0 0 25 245 86 53 168 158 570 643 669 756 708 676 677 711 704 656 581 500 579 480 255 127 260 420 402 369 324 443 370 477 508 740 305 134 63 158 282 499 312 191 219 225 137 126 116
0 0 0 16 36 78 91 67 130 62 602 507 694 868 791 738 660 729 808 717 576 478 404 355 235 223 251 317 312 289 283 553 559 558 432 367 275 73 101 147 245 296 294 190 177 181 173 114 129
0 0 0 8 1 55 77 52 136 93 261 668 238 648 831 805 733 699 773 735 640 499 424 389 150 164 369 574 363 506 446 326 493 563 505 243 322 156 216 205 181 252 111 228 181 183 104 131 121
0 0 0 0 7 77 122 107 124 199 650 822 7 140 484 910 868 723 888 933 908 724 565 373 218 112 210 395 480 305 256 182 248 602 543 584 361 320 280 191 187 163 87 96 216 225 173 27 164
0 0 0 0 0 31 59 68 34 254 220 505 195 116 267 916 1039 858 815 1043 1043 929 678 403 299 206 159 271 337 334 80 72 41 277 533 423 314 261 160 219 190 156 75 110 164 197 141 86 142
0 0 0 0 0 2 19 7 30 97 116 343 269 322 144 943 1121 974 800 812 896 852 667 502 525 398 273 259 176 287 221 102 29 99 405 511 459 409 328 261 169 246 139 87 98 119 78 38 83
0 0 0 0 0 0 2 0 1 9 53 92 240 460 698 1018 1175 1037 948 888 856 977 901 880 826 544 504 460 366 366 427 469 314 260 368 490 553 462 436 330 380 331 361 103 136 194 69 48 26
0 0 0 0 0 0 0 0 6 34 55 131 303 517 848 1101 1169 1143 1100 1020 981 996 1211 1087 1033 1001 926 743 599 512 497 524 613 580 602 636 588 536 538 518 474 463 489 109 197 245 83 41 41
0 0 0 0 0 0 0 0 0 14 45 0 15 151 423 1073 1251 1355 1264 1170 1151 1165 1248 1307 1207 1161 1294 1303 1076 911 760 710 753 718 683 649 608 704 823 600 507 549 476 169 35 35 58 33 32
0 0 0 0 0 0 0 0 0 14 10 6 293 398 782 1394 1436 1393 1377 1373 1378 1270 1360 1556 1389 1295 1283 1403 1452 1250 1151 973 930 851 710 847 832 712 715 640 518 450 325 197 59 85 44 47 28
0 0 0 0 0 0 0 0 2 18 26 1 32 65 1162 1419 1524 1456 1410 1487 1494 1483 1502 1639 1687 1546 1483 1567 1506 1473 1537 1422 1335 1158 966 905 932 841 661 673 682 503 264 47 36 1 0 0 1
0 0 0 0 0 0 0 0 17 29 13 2 1 14 730 1401 1617 1385 1414 1473 1563 1604 1604 1780 1865 1825 1830 1725 1763 1668 1460 1600 1604 1561 1286 1045 886 836 735 620 479 287 299 257 88 0 0 0 10
0 0 0 0 0 0 0 0 0 4 10 3 0 0 358 1422 1587 1311 1443 1449 1635 1643 1658 1666 1878 1954 2028 2112 2075 2052 2097 1926 1842 1733 1615 1445 1155 883 703 514 524 376 194 159 89 20 7 3 12
0 0 0 0 0 0 0 0 0 0 3 33 0 4 0 203 1136 1146 1260 1343 1460 1655 1652 1714 1911 2046 2200 2286 2312 2394 2418 2464 2402 2288 2003 1768 1490 1198 925 758 605 507 317 185 126 96 47 34 6
0 0 0 0 0 0 0 0 0 0 5 4 25 87 60 0 297 864 957 981 1326 1541 1706 1818 2016 2171 2342 2461 2574 2607 2626 2654 2558 2459 2252 1932 1763 1457 1199 1046 873 720 564 441 312 184 200 119 149
CIN
-129 -186 -193 -84 -122 -107 -38 -28 -68 -30 -61 -119 -93 -71 -70 -107 -108 -81 -143 -99 -122 -48 -0 -0 -0 -0 -0 -13 -23 -24 -31 -13 -5 -20 -7 -0 -0 -0 -0 -0 -0 -0 -0 -0 -0 -0 -0 -41 -0
-241 -114 -120 -84 -84 -23 -36 -60 -37 -67 -132 -119 -89 -95 -82 -110 -111 -105 -88 -100 -118 -55 -0 -0 -0 -0 -1 -1 -11 -7 -4 -3 -0 -6 -0 -0 -0 -0 -0 -0 -0 -0 -0 -1 -14 -5 -3 -35 -5
-0 -41 -152 -99 -104 -26 -29 -49 -55 -53 -102 -64 -101 -94 -119 -123 -107 -120 -125 -125 -79 -38 -7 -1 -0 -0 -0 -0 -1 -4 -0 -0 -4 -0 -0 -0 -2 -6 -0 -0 -0 -0 -0 -0 -1 -1 -46 -63 -11
-145 -108 -110 -93 -47 -50 -28 -28 -49 -96 -26 -55 -75 -87 -130 -125 -155 -165 -135 -120 -115 -55 -11 -0 -0 -0 -0 -0 -0 -1 -0 -0 -1 -6 -11 -0 -0 -2 -0 -0 -0 -0 -0 -0 -0 -0 -42 -52 -9
-73 -131 -67 -69 -68 -31 -31 -11 -30 -38 -51 -65 -75 -129 -108 -97 -158 -182 -174 -156 -159 -70 -8 -0 -0 -0 -0 -0 -1 -1 -0 -0 -0 -6 -0 -0 -0 -0 -0 -0 -0 -0 -0 -0 -0 -0 -6 -26 -20
-109 -159 -79 -37 -60 -35 -30 -27 -11 -37 -53 -89 -90 -99 -66 -108 -126 -143 -162 -143 -154 -113 -14 -0 -0 -0 -0 -0 -2 -1 -0 -0 -0 -1 -0 -0 -0 -0 -0 -0 -0 -0 -0 -0 -1 -2 -2 -23 -48
-124 -0 -106 -83 -44 -47 -46 -31 -38 -30 -33 -58 -93 -76 -112 -79 -125 -151 -120 -109 -141 -129 -69 -5 -0 -0 -0 -1 -0 -0 -0 -2 -0 -6 -1 -0 -0 -0 -0 -0 -0 -0 -0 -0 -1 -5 -6 -26 -27
-176 -136 -107 -116 -35 -7 -81 -50 -74 -79 -42 -72 -98 -80 -142 -120 -122 -119 -106 -116 -123 -100 -86 -74 -22 -1 -1 -1 -0 -0 -0 -3 -0 -0 -7 -2 -2 -4 -0 -0 -0 -0 -0 -0 -2 -16 -25 -16 -15
-194 -86 -25 -24 -21 -39 -35 -54 -75 -98 -47 -47 -84 -99 -125 -159 -142 -102 -75 -60 -88 -69 -62 -51 -63 -39 -19 -9 -0 -0 -7 -0 -0 -0 -0 -3 -6 -5 -2 -2 -0 -0 -0 -0 -0 -10 -25 -34 -18
-0 -68 -51 -60 -42 -46 -86 -116 -154 -111 -84 -108 -115 -109 -115 -99 -111 -124 -84 -74 -101 -110 -60 -64 -74 -86 -49 -16 -18 -15 -3 -1 -13 -9 -8 -32 -49 -56 -27 -9 -5 -2 -2 -0 -0 -6 -22 -25 -35
-107 -129 -111 -55 -59 -83 -104 -166 -182 -7 -93 -110 -94 -103 -106 -67 -78 -89 -96 -113 -114 -136 -95 -95 -108 -111 -104 -86 -56 -77 -69 -35 -22 -39 -53 -50 -47 -43 -38 -19 -14 -4 -3 -10 -5 -5 -35 -56 -62
-149 -24 -76 -62 -66 -111 -111 -197 -15 -92 -77 -201 -129 -70 -102 -107 -106 -100 -109 -110 -126 -163 -154 -139 -145 -224 -145 -45 -85 -150 -219 -162 -75 -69 -58 -69 -81 -67 -39 -26 -41 -18 -13 -38 -31 -29 -37 -54 -52
-81 -72 -46 -61 -59 -90 -158 -105 -109 -102 -173 -200 -168 -71 -95 -97 -134 -128 -102 -113 -161 -178 -167 -167 -196 -224 -117 -64 -64 -78 -87 -130 -138 -113 -69 -71 -124 -73 -59 -50 -45 -71 -45 -52 -41 -43 -48 -55 -50
-11 -31 -47 -29 -40 -104 -94 -130 -167 -141 -228 -180 -146 -89 -37 -94 -115 -140 -121 -110 -190 -177 -164 -183 -217 -270 -132 -72 -91 -105 -90 -65 -67 -70 -88 -65 -70 -67 -64 -62 -59 -57 -69 -42 -39 -38 -54 -41 -41
-0 -0 -27 -24 -67 -121 -152 -162 -106 -155 -292 -196 -162 -172 -78 -77 -75 -134 -135 -109 -189 -213 -199 -190 -192 -267 -167 -127 -110 -111 -105 -89 -89 -53 -64 -65 -66 -58 -66 -67 -83 -51 -39 -62 -42 -38 -43 -42 -36
-0 -0 -0 -0 -4 -47 -49 -19 -116 -204 -260 -187 -202 -214 -191 -115 -120 -108 -100 -79 -105 -190 -220 -199 -199 -232 -174 -149 -152 -125 -103 -78 -83 -80 -65 -57 -73 -68 -69 -72 -52 -37 -37 -39 -46 -41 -32 -32 -32
-0 -0 -0 -25 -47 -61 -41 -23 -116 -305 -258 -155 -189 -204 -206 -165 -106 -110 -107 -117 -122 -178 -233 -206 -225 -203 -184 -158 -146 -118 -104 -55 -57 -66 -70 -75 -62 -87 -71 -59 -64 -51 -40 -38 -41 -46 -65 -127 -24
-0 -0 -0 -5 -8 -7 -22 -21 -138 -259 -235 -153 -159 -183 -195 -183 -135 -97 -121 -106 -134 -214 -204 -209 -231 -178 -143 -104 -117 -78 -64 -78 -74 -61 -63 -88 -68 -71 -67 -65 -62 -68 -69 -54 -56 -43 -112 -67 -49
-0 -0 -0 -0 -10 -23 -15 -23 -95 -191 -245 -204 -218 -161 -252 -198 -151 -136 -108 -102 -110 -178 -201 -233 -200 -201 -160 -119 -80 -82 -68 -72 -68 -63 -65 -53 -71 -66 -70 -66 -66 -78 -77 -89 -49 -51 -46 -88 -59
-0 -0 -0 -0 -0 -14 -9 -19 -115 -212 -139 -188 -163 -178 -266 -214 -170 -144 -140 -102 -127 -146 -191 -240 -233 -225 -216 -167 -133 -91 -95 -87 -103 -63 -43 -54 -61 -73 -77 -77 -83 -84 -92 -100 -78 -62 -60 -55 -33
-0 -0 -0 -0 -0 -4 -10 -11 -54 -211 -244 -284 -227 -175 -289 -187 -174 -158 -154 -150 -150 -157 -205 -263 -237 -231 -236 -211 -197 -142 -122 -117 -135 -113 -66 -62 -64 -75 -71 -65 -83 -84 -88 -82 -81 -76 -78 -81 -54
-0 -0 -0 -0 -0 -0 -1 -0 -7 -123 -141 -271 -191 -208 -190 -187 -170 -149 -151 -147 -142 -173 -186 -197 -231 -245 -214 -213 -191 -154 -132 -102 -112 -98 -93 -92 -91 -87 -76 -77 -74 -67 -68 -70 -71 -57 -73 -84 -69
-0 -0 -0 -0 -0 -0 -0 -0 -46 -131 -76 -164 -175 -107 -190 -193 -159 -147 -155 -156 -162 -177 -182 -182 -192 -171 -173 -188 -183 -164 -151 -125 -97 -65 -56 -70 -90 -80 -83 -82 -86 -76 -61 -81 -56 -45 -51 -64 -69
-0 -0 -0 -0 -0 -0 -0 -0 -0 -48 -57 -5 -146 -132 -171 -194 -145 -132 -138 -177 -172 -197 -196 -193 -185 -172 -154 -147 -160 -156 -147 -120 -85 -67 -57 -69 -71 -72 -69 -81 -89 -79 -74 -96 -101 -81 -60 -41 -44
-0 -0 -0 -0 -0 -0 -0 -0 -0 -59 -65 -68 -88 -110 -149 -135 -112 -136 -144 -185 -186 -202 -199 -201 -219 -201 -185 -153 -145 -148 -137 -126 -91 -64 -63 -52 -60 -85 -95 -86 -83 -85 -83 -87 -93 -58 -61 -48 -24
-0 -0 -0 -0 -0 -0 -0 -0 -2 -51 -61 -91 -79 -156 -114 -106 -112 -142 -146 -167 -197 -200 -214 -231 -243 -233 -219 -174 -157 -142 -124 -114 -93 -68 -52 -38 -52 -66 -106 -93 -82 -83 -79 -84 -78 -14 -0 -0 -76
-0 -0 -0 -0 -0 -0 -0 -0 -39 -97 -86 -94 -96 -117 -97 -84 -141 -140 -153 -143 -160 -195 -211 -214 -217 -230 -242 -207 -165 -151 -134 -101 -84 -54 -42 -38 -64 -72 -85 -86 -93 -107 -82 -54 -51 -8 -0 -3 -64
-0 -0 -0 -0 -0 -0 -0 -0 -0 -32 -52 -27 -0 -0 -77 -81 -148 -135 -163 -124 -159 -159 -187 -224 -211 -198 -219 -204 -177 -145 -109 -80 -58 -43 -30 -24 -47 -78 -86 -118 -103 -86 -93 -71 -55 -58 -61 -36 -45
-0 -0 -0 -0 -0 -0 -0 -0 -0 -0 -40 -43 -0 -124 -0 -100 -129 -118 -123 -106 -136 -134 -176 -197 -210 -213 -225 -196 -170 -124 -88 -52 -38 -28 -27 -29 -39 -61 -83 -81 -112 -91 -92 -88 -65 -48 -52 -51 -44
-0 -0 -0 -0 -0 -0 -0 -0 -0 -0 -112 -76 -111 -118 -131 -0 -118 -102 -88 -119 -130 -135 -151 -189 -202 -191 -193 -174 -148 -110 -65 -30 -29 -26 -21 -32 -27 -48 -60 -51 -53 -50 -53 -48 -43 -61 -39 -55 -41
Wind_Speed
20 20 20 16 17 20 17 20 19 22 21 21 24 21 21 21 18 19 28 28 29 31 32 31 31 30 29 28 27 26 27 25 27 28 27 24 23 22 19 19 24 26 21 28 29 31 31 30 13
25 23 21 17 21 22 20 17 21 11 29 29 27 25 20 20 20 26 29 28 29 30 30 31 30 29 28 27 26 25 25 25 24 26 26 25 23 26 28 28 25 22 27 27 29 29 30 29 25
26 25 19 17 18 25 23 20 26 25 23 23 23 23 21 23 24 29 27 30 28 29 30 30 29 28 28 27 25 24 25 25 24 24 25 26 26 28 28 28 27 27 26 26 26 27 26 27 25
20 18 17 13 20 19 20 23 23 27 25 26 26 23 23 25 29 26 29 29 28 29 29 30 29 28 27 26 25 24 24 25 25 24 24 25 26 27 27 27 27 26 26 26 25 26 27 29 23
15 16 22 20 14 16 21 18 28 25 23 24 23 25 25 20 23 28 29 28 28 28 28 28 29 28 26 26 26 25 24 24 24 24 24 24 25 25 25 25 25 25 25 26 26 25 26 26 25
17 18 21 10 7 5 24 15 24 24 24 24 24 24 20 24 24 27 29 28 28 28 27 26 27 27 25 25 24 23 23 23 23 23 23 23 23 24 24 24 24 24 23 25 26 26 25 26 24
13 16 22 23 23 26 25 14 18 23 22 20 22 20 22 27 25 28 28 29 28 27 26 25 26 26 25 23 23 23 22 22 22 22 22 23 23 22 23 22 23 24 23 24 25 26 25 24 21
17 20 11 18 21 22 26 26 26 19 22 20 21 16 21 27 27 26 26 28 26 25 24 25 24 24 23 22 23 22 22 22 21 21 21 23 22 22 23 24 24 25 25 24 23 22 23 24 20
16 15 12 13 21 21 19 23 24 21 24 16 14 18 23 30 29 25 22 24 21 23 24 23 23 22 22 21 22 21 22 22 23 22 22 22 22 21 23 24 24 23 23 23 22 21 21 22 21
14 15 8 15 17 16 19 20 22 19 21 23 23 21 24 28 27 25 26 24 24 23 22 23 22 22 21 22 21 21 21 21 22 22 24 21 20 21 22 22 22 21 21 21 20 20 20 18 15
12 9 20 18 19 17 18 21 21 21 17 18 20 21 26 27 26 25 25 25 24 23 22 23 21 21 22 22 22 21 21 22 22 24 24 22 18 18 21 21 20 20 19 19 18 18 19 18 17
11 15 14 8 15 17 19 23 22 22 11 19 21 21 25 25 25 24 24 24 23 24 23 24 23 21 22 21 22 21 20 22 22 25 24 21 19 19 18 19 19 20 18 18 16 16 17 17 17
6 9 10 10 9 16 21 17 15 16 19 20 20 20 19 23 26 25 23 23 22 21 21 24 24 21 22 20 21 21 18 19 23 24 23 22 21 19 18 18 18 19 18 17 15 15 14 16 13
17 9 10 12 15 16 12 14 17 13 18 18 19 17 17 20 24 22 23 23 22 20 20 23 24 20 22 20 19 21 18 20 20 20 21 22 20 18 17 18 19 18 17 16 15 15 14 12 12
25 16 7 16 11 10 14 12 12 14 17 17 17 17 19 18 23 21 22 22 20 19 19 21 22 19 20 21 20 20 17 17 20 18 18 17 16 16 15 15 16 13 12 14 13 12 11 9 11
22 17 14 9 6 8 7 10 7 13 14 18 17 17 18 23 23 22 22 21 18 15 17 18 20 17 20 18 20 21 16 15 16 17 16 14 13 12 10 10 9 8 9 11 11 9 7 8 9
14 18 17 17 9 8 4 11 9 12 16 14 13 14 16 19 23 21 21 20 19 14 18 22 21 18 20 20 17 19 18 14 14 11 13 13 10 11 8 7 7 7 7 8 8 8 9 7 7
13 24 25 19 20 6 7 4 8 12 16 18 15 14 14 14 19 20 19 20 17 19 20 24 25 25 20 17 21 17 13 5 6 13 15 14 10 10 8 7 6 4 5 6 6 7 8 7 8
2 23 31 29 27 9 6 4 5 13 13 17 19 12 13 18 19 19 18 20 19 20 21 23 26 26 21 17 16 18 22 12 4 7 13 16 15 11 11 5 4 4 4 4 5 8 6 11 9
26 24 28 24 25 12 3 3 5 11 11 16 19 18 16 19 19 18 17 21 21 22 23 25 23 23 23 18 14 8 15 21 6 5 10 14 14 13 10 8 6 5 4 5 5 6 6 7 8
25 18 30 27 32 26 10 18 14 8 2 14 23 20 17 19 20 19 21 23 23 23 23 24 22 21 20 18 9 1 2 12 8 2 7 12 15 13 12 11 7 4 3 4 3 5 3 4 5
17 30 21 27 30 19 19 24 25 18 5 13 21 20 13 18 20 19 23 26 25 22 23 22 21 21 19 15 13 13 10 15 19 10 6 9 12 12 11 7 7 4 2 2 3 3 3 6 4
9 32 13 25 31 25 23 21 23 16 13 5 12 15 15 13 21 21 24 26 26 23 22 22 22 21 20 19 16 16 13 10 4 4 5 8 9 9 8 6 4 4 2 4 2 2 1 3 10
32 33 26 24 23 26 25 24 29 26 12 8 13 10 15 12 24 23 25 24 24 23 22 22 23 23 21 20 19 17 17 13 9 3 3 6 6 8 7 9 6 3 4 3 5 2 10 8 10
27 24 26 28 27 22 26 26 30 19 11 11 8 12 17 23 25 27 24 22 23 23 22 21 21 22 21 19 18 17 17 16 16 14 8 6 7 5 8 6 7 7 5 6 4 5 2 19 23
29 20 14 20 20 31 26 21 22 9 6 7 5 4 12 25 28 30 26 23 23 24 21 20 21 19 19 17 17 15 13 13 12 11 11 10 9 10 7 8 5 6 5 6 4 5 10 3 24
24 17 15 19 19 25 23 24 21 17 13 5 4 10 5 31 28 28 24 23 24 22 21 20 19 18 16 16 12 11 12 9 11 11 14 12 10 10 9 7 5 4 5 5 6 6 11 6 12
19 16 21 23 23 27 21 21 23 16 15 5 4 12 14 30 31 27 22 19 22 23 20 19 18 17 14 13 12 10 9 11 12 11 12 14 12 7 7 4 9 14 11 11 9 9 13 10 13
22 18 18 20 17 22 31 24 20 29 13 1 6 5 18 31 34 27 26 23 21 20 17 18 16 15 13 12 10 8 9 13 14 15 15 14 12 10 7 9 10 11 11 9 8 9 7 5 4
21 21 18 17 21 23 26 43 29 35 23 13 10 15 19 11 30 22 23 22 18 19 15 16 16 14 14 14 13 13 12 14 14 14 14 14 14 11 12 10 9 9 10 9 10 10 8 8 8
Wind_Direction
71 98 152 162 147 123 131 112 136 119 122 126 120 126 106 106 116 120 117 117 119 123 128 128 125 120 116 113 107 98 95 88 92 95 88 74 74 75 64 58 77 84 66 91 93 100 105 98 64
90 150 141 146 128 122 124 130 41 28 102 91 80 95 99 94 86 99 112 117 119 121 124 126 124 120 117 114 110 104 100 93 88 94 89 78 74 96 108 99 87 73 91 94 99 95 105 96 86
120 131 134 138 131 107 105 127 97 101 119 106 103 84 82 85 87 112 114 118 117 120 122 125 124 119 118 114 110 104 102 98 91 89 83 81 81 95 106 105 96 94 94 95 95 97 93 97 89
127 130 123 149 118 125 117 110 107 106 85 85 80 82 69 96 105 112 115 118 117 120 122 124 123 123 119 116 111 107 104 102 98 89 83 80 84 89 94 97 98 94 97 100 94 98 103 108 86
158 133 105 115 125 112 99 124 109 88 85 78 72 81 89 81 91 108 118 120 120 121 122 123 126 126 121 119 116 114 107 105 100 98 91 86 88 88 88 94 92 95 99 107 105 101 106 105 99
111 116 116 98 236 157 49 140 95 65 70 71 63 82 115 103 102 116 120 123 123 124 122 123 126 125 122 120 116 111 110 109 103 99 97 92 89 91 94 96 95 94 95 106 117 115 107 113 102
143 128 82 79 100 58 47 348 27 61 64 60 77 64 95 118 111 119 116 124 125 126 124 123 126 125 122 118 117 114 111 109 106 103 101 102 100 92 94 92 99 102 99 111 124 129 115 112 94
91 45 153 99 73 42 72 48 19 349 23 79 80 68 107 129 120 116 114 119 120 124 126 127 126 125 121 119 119 118 115 113 108 106 101 110 104 103 105 109 108 113 113 114 112 113 122 121 101
42 10 297 96 55 52 54 40 10 74 65 86 86 90 110 125 120 113 112 117 116 125 129 130 129 127 124 120 124 119 120 118 116 112 109 108 108 110 118 120 115 109 109 109 106 105 111 127 113
41 14 281 82 62 83 62 47 14 60 19 70 65 78 99 116 120 118 126 127 129 131 134 136 133 130 127 127 126 122 122 122 122 122 127 115 108 110 121 124 116 111 109 108 106 104 111 104 72
46 55 322 33 41 67 51 47 74 69 1 77 85 93 110 117 125 126 133 136 139 138 136 142 137 133 133 133 132 129 131 131 131 137 132 127 107 113 129 136 120 115 112 109 107 108 118 108 104
56 339 210 109 52 54 60 87 76 73 103 109 107 105 116 120 130 133 136 139 138 141 141 143 144 140 140 135 136 134 129 137 139 148 139 128 118 121 116 125 126 123 119 116 107 110 117 119 125
115 88 156 172 71 87 110 72 67 69 61 108 115 121 114 130 137 139 140 141 138 143 143 148 146 143 144 137 138 139 132 135 142 147 145 136 126 119 111 120 122 126 126 121 114 115 110 127 112
16 153 139 78 86 112 81 83 44 110 118 127 114 128 133 136 145 138 145 144 145 142 145 148 149 142 145 142 141 144 136 140 139 142 144 148 137 122 112 120 132 137 138 137 128 129 119 91 106
300 354 85 323 66 65 44 56 58 111 92 77 109 131 150 145 156 148 151 151 148 150 144 150 149 143 144 146 146 147 139 137 148 144 145 142 134 132 123 116 122 116 109 133 117 122 115 99 113
313 335 11 29 53 102 72 26 92 112 112 131 122 126 145 167 165 165 162 161 151 137 149 156 154 147 149 145 149 152 140 141 148 151 147 140 135 124 105 94 79 60 39 73 94 77 70 62 98
340 334 352 1 57 47 124 9 105 134 154 142 124 129 139 161 174 170 169 170 162 144 150 160 159 152 154 156 148 157 153 145 153 144 145 139 125 127 105 85 83 64 44 52 57 34 8 23 75
335 306 302 352 3 54 135 125 99 143 157 163 146 136 155 156 175 169 165 169 157 152 153 162 160 160 152 143 152 147 137 103 69 146 153 148 136 132 121 101 87 62 29 23 33 33 39 67 95
257 240 279 264 264 359 137 147 118 147 152 169 166 161 155 170 169 163 163 163 157 157 158 159 160 164 157 150 150 157 167 149 344 109 148 155 148 139 136 112 82 66 14 53 20 354 68 116 73
236 240 256 321 258 346 250 160 138 146 168 171 170 184 165 168 165 161 157 162 164 163 164 165 165 165 167 160 154 145 158 174 145 114 138 156 156 156 155 146 130 111 61 92 83 83 53 101 100
233 326 284 309 300 311 324 315 351 176 179 176 189 188 178 170 167 160 162 160 158 161 161 163 164 164 164 164 149 291 136 285 167 282 151 156 162 161 156 156 144 114 100 102 99 117 60 55 95
223 251 242 311 313 334 310 313 296 333 187 184 185 186 172 170 169 163 163 166 166 162 162 163 161 162 162 158 157 161 163 164 172 158 143 152 157 159 157 154 147 137 111 108 135 137 131 348 28
229 266 322 313 302 317 310 311 307 335 354 142 170 187 186 162 164 162 162 164 165 160 158 159 160 161 162 163 162 166 167 168 158 154 163 168 167 168 165 166 162 150 144 142 128 15 138 315 315
275 289 304 311 316 304 296 308 282 302 337 16 164 184 165 167 166 162 160 156 158 158 156 157 161 167 163 164 167 169 172 171 174 192 192 174 185 179 180 173 178 205 187 184 175 218 313 316 309
292 309 304 299 296 303 293 302 294 315 343 345 67 135 149 155 163 165 157 157 161 161 160 160 163 168 167 166 169 171 174 176 183 185 187 192 188 218 188 189 185 186 203 202 260 287 278 300 290
285 309 309 307 305 282 299 317 318 337 26 9 31 53 144 158 164 169 162 158 161 167 163 162 167 168 168 170 173 171 166 173 179 183 185 194 196 198 206 203 214 200 213 211 264 280 301 293 293
290 302 314 303 310 302 301 309 307 308 324 24 335 273 167 174 167 169 168 166 166 165 165 165 164 167 168 172 170 171 175 173 179 181 184 186 195 197 201 208 241 264 216 213 204 217 206 229 201
304 287 302 302 294 294 300 306 303 314 304 39 56 164 169 179 183 173 169 166 171 174 170 164 165 167 164 162 164 166 168 175 180 176 184 189 189 189 191 203 175 184 181 185 188 199 203 200 197
311 291 291 307 298 296 290 296 308 298 310 89 33 348 232 191 192 179 176 170 169 169 163 161 160 157 154 156 152 145 155 168 174 176 177 179 178 171 168 169 169 172 173 165 166 172 173 171 171
303 301 278 287 304 299 292 261 293 289 300 289 287 319 306 199 187 180 174 169 163 165 156 155 154 151 148 146 147 151 149 155 160 162 165 167 169 159 162 159 157 157 161 152 158 159 151 160 172